Terminal Aerodrome Forecast
Issued by NWS North Platte, NE

Home | Current Version | Previous Version | Text Only | Print | Product List | Glossary Off
Versions: 1 2 3 4 5 6 7 8 9 10 11 12

000
FTUS43 KLBF 292300
TAFVTN
TAF
KVTN 292323Z 3000/3024 02007KT P6SM FEW100 BKN120
     FM301500 VRB05KT P6SM SCT070 SCT200=

USA.gov is the U.S. government's official web portal to all federal, state and local government web resources and services.